User: anonymous   Login
Location: Easthampton
(42.2676°N, 72.6690°W)
Time: 18:13:32
(UTC+00:00)
Language:

Gurwin Techsat 1B - Orbit

View from above orbital plane
View from above orbital plane
View from above satellite
View from above satellite

Ground track
Ground track

The orbit data is extracted from the following two-line orbital elements,

1 25397U 98043D   24105.86074734  .00000226  00000-0  11833-3 0  9990
2 25397  98.9163  71.6596 0001470  28.8628 331.2631 14.24015308338409
Epoch (UTC): 14 April 2024 20:39:28
Eccentricity: 0.0001470
inclination: 98.9163°
perigee height: 811 km
apogee height: 813 km
right ascension of ascending node: 71.6596°
argument of perigee: 28.8628°
revolutions per day: 14.24015308
mean anomaly at epoch: 331.2631°
orbit number at epoch: 33840

The dashed part of the orbit path shows where the satellite is in the earth's shadow,  

DLR